Weather History for KHPN - December, 2012

Change the Weather History Date:

Monday, December 3, 2012

  Actual Average Record
Temperature  
Mean Temperature 48 °F -  
Max Temperature 57 °F 44 °F 66 °F (1998)
Min Temperature 39 °F 30 °F 7 °F (1976)
Degree Days  
Heating Degree Days 17    
Moisture  
Dew Point 43 °F    
Average Humidity 82    
Maximum Humidity 100    
Minimum Humidity 58    
Precipitation  
Precipitation 0.00 in - - ()
Sea Level Pressure  
Sea Level Pressure 30.19 in    
Wind  
Wind Speed 3 mph (WNW)    
Max Wind Speed 10 mph    
Max Gust Speed -    
Visibility 7 miles    
Events Fog    
Averages and records for this station are not official NWS values.
T = Trace of Precipitation, MM = Missing Value Source: NWS Daily Summary

Daily Weather History Graph

Daily Weather History Graph

Search for Another Location

Airport or City:

Trip Planner

Search our weather history database for the weather conditions in past years. The results will help you decide how hot, cold, wet, or windy it might be!

Date:

Astronomy

Dec. 03, 2012 Rise Set
Actual Time 7:02 AM EST 4:26 PM EST
Civil Twilight 6:32 AM EST 4:57 PM EST
Nautical Twilight 5:57 AM EST 5:31 PM EST
Astronomical Twilight 5:24 AM EST 6:04 PM EST
Moon 9:12 PM EST (12/3) 10:23 AM EST (12/3)
Length of Visible Light 10h 25m
Length of Day
9h 23m
Waning Gibbous, 78% of the Moon is Illuminated
Dec 3
Waning Gibbous
Dec 6
Last Quarter
Dec 13
New
Dec 20
First Quarter
Dec 28
Full

Hourly Weather History & Observations

Time (EST) Temp. Windchill Dew Point Humidity Pressure Visibility Wind Dir Wind Speed Gust Speed Precip Events Conditions
12:56 AM 48.0 °F - 45.0 °F 89% 30.09 in 3.0 mi Calm Calm - N/A   Overcast
1:56 AM 48.0 °F - 45.0 °F 89% 30.11 in 4.0 mi West 4.6 mph - N/A   Overcast
2:56 AM 48.9 °F - 45.0 °F 86% 30.10 in 4.0 mi West 3.5 mph - N/A   Overcast
3:56 AM 46.9 °F - 44.1 °F 90% 30.11 in 4.0 mi WNW 4.6 mph - N/A   Mostly Cloudy
4:56 AM 46.9 °F - 44.1 °F 90% 30.12 in 3.0 mi West 4.6 mph - N/A   Partly Cloudy
5:56 AM 42.1 °F - 41.0 °F 96% 30.14 in 3.0 mi Calm Calm - N/A   Partly Cloudy
6:56 AM 41.0 °F - 41.0 °F 100% 30.16 in 3.0 mi Calm Calm - N/A   Partly Cloudy
7:56 AM 45.0 °F 43.5 °F 44.1 °F 97% 30.18 in 3.0 mi West 3.5 mph - N/A Fog Patches of Fog
8:56 AM 48.9 °F - 46.9 °F 93% 30.19 in 4.0 mi West 3.5 mph - N/A   Clear
9:56 AM 53.1 °F - 46.9 °F 80% 30.19 in 5.0 mi West 8.1 mph - N/A   Haze
10:56 AM 55.0 °F - 46.0 °F 72% 30.19 in 8.0 mi WNW 6.9 mph - N/A   Clear
11:56 AM 57.0 °F - 44.1 °F 62% 30.17 in 10.0 mi NW 10.4 mph - N/A   Clear
12:56 PM 57.9 °F - 43.0 °F 58% 30.17 in 10.0 mi WNW 8.1 mph - N/A   Clear
1:56 PM 57.9 °F - 43.0 °F 58% 30.17 in 10.0 mi West 9.2 mph - N/A   Clear
2:56 PM 57.0 °F - 43.0 °F 59% 30.18 in 10.0 mi West 5.8 mph - N/A   Clear
3:56 PM 55.9 °F - 42.1 °F 60% 30.20 in 10.0 mi Calm Calm - N/A   Clear
4:56 PM 51.1 °F - 42.1 °F 71% 30.22 in 10.0 mi Calm Calm - N/A   Clear
5:56 PM 46.9 °F - 41.0 °F 80% 30.23 in 10.0 mi NNW 5.8 mph - N/A   Clear
6:56 PM 45.0 °F - 39.9 °F 82% 30.26 in 10.0 mi Calm Calm - N/A   Clear
7:56 PM 43.0 °F - 39.0 °F 86% 30.27 in 8.0 mi Calm Calm - N/A   Clear
8:56 PM 43.0 °F 41.3 °F 39.9 °F 89% 30.27 in 8.0 mi WNW 3.5 mph - N/A   Clear
9:56 PM 41.0 °F - 39.0 °F 93% 30.27 in 5.0 mi Calm Calm - N/A   Clear
10:56 PM 39.9 °F - 37.9 °F 93% 30.27 in 5.0 mi Calm Calm - N/A   Clear
11:56 PM 39.9 °F - 37.9 °F 93% 30.27 in 8.0 mi Calm Calm - N/A   Clear